| time (UTC) | temp F | wind direction | speed knots | gust knots | rain 1hr in | rain 24hr in | rain mn in | humidity % | barometer mb |
| 20260902031405 | 58 | 231 | 5.2 | 13.0 | 0.00 | 0.00 | 0.00 | 77 | 1015.0 |
| 20260902030905 | 58 | 282 | 5.2 | 12.2 | 0.00 | 0.00 | 0.00 | 76 | 1015.0 |
| 20260902030404 | 59 | 217 | 3.5 | 17.4 | 0.00 | 0.00 | 0.00 | 76 | 1014.9 |
| 20260902025904 | 59 | 306 | 5.2 | 17.4 | 0.00 | 0.00 | 0.00 | 74 | 1015.0 |
| 20260902025405 | 60 | 293 | 6.1 | 13.0 | 0.00 | 0.00 | 0.00 | 74 | 1014.9 |
| 20260902024905 | 60 | 311 | 6.1 | 14.8 | 0.00 | 0.00 | 0.00 | 74 | 1014.9 |
| 20260902024404 | 59 | 280 | 8.7 | 20.9 | 0.00 | 0.00 | 0.00 | 74 | 1014.9 |
| 20260902022905 | 60 | 255 | 6.1 | 17.4 | 0.00 | 0.00 | 0.00 | 75 | 1014.9 |
| 20260902022405 | 60 | 289 | 7.8 | 17.4 | 0.00 | 0.00 | 0.00 | 75 | 1014.9 |
| 20260902021905 | 60 | 312 | 7.0 | 18.2 | 0.00 | 0.00 | 0.00 | 76 | 1014.9 |
| 20260902021405 | 59 | 313 | 7.8 | 17.4 | 0.00 | 0.00 | 0.00 | 75 | 1014.9 |
| 20260902020905 | 59 | 308 | 7.0 | 19.1 | 0.00 | 0.00 | 0.00 | 75 | 1014.8 |
| 20260902015405 | 60 | 296 | 8.7 | 19.1 | 0.00 | 0.00 | 0.00 | 74 | 1014.8 |
| 20260902014905 | 60 | 290 | 6.1 | 17.4 | 0.00 | 0.00 | 0.00 | 75 | 1014.7 |
| 20260902014405 | 59 | 324 | 7.8 | 18.2 | 0.00 | 0.00 | 0.00 | 74 | 1014.7 |
| 20260902013905 | 59 | 333 | 7.8 | 15.6 | 0.00 | 0.00 | 0.00 | 75 | 1014.7 |
| 20260902012906 | 59 | 295 | 7.8 | 19.1 | 0.00 | 0.00 | 0.00 | 75 | 1014.7 |
| 20260902012405 | 59 | 212 | 7.0 | 14.8 | 0.00 | 0.00 | 0.00 | 75 | 1014.9 |
| 20260902011905 | 59 | 312 | 6.1 | 19.1 | 0.00 | 0.00 | 0.00 | 76 | 1014.9 |
| 20260902011405 | 59 | 292 | 8.7 | 18.2 | 0.00 | 0.00 | 0.00 | 75 | 1014.9 |
| 20260902010405 | 59 | 305 | 5.2 | 17.4 | 0.00 | 0.00 | 0.00 | 75 | 1015.1 |
| 20260902005406 | 59 | 349 | 7.8 | 14.8 | 0.00 | 0.00 | 0.00 | 74 | 1015.2 |
| 20260902004905 | 59 | 315 | 8.7 | 17.4 | 0.00 | 0.00 | 0.00 | 75 | 1015.2 |
| 20260902004406 | 59 | 340 | 8.7 | 22.6 | 0.00 | 0.00 | 0.00 | 74 | 1015.3 |
| 20260902003406 | 59 | 251 | 7.8 | 20.9 | 0.00 | 0.00 | 0.00 | 74 | 1015.4 |
| 20260902002905 | 59 | 273 | 7.8 | 15.6 | 0.00 | 0.00 | 0.00 | 74 | 1015.3 |
| 20260902002406 | 59 | 282 | 8.7 | 20.0 | 0.00 | 0.00 | 0.00 | 73 | 1015.4 |
| 20260902001905 | 59 | 319 | 7.0 | 18.2 | 0.00 | 0.00 | 0.00 | 73 | 1015.3 |
| 20260902001405 | 59 | 326 | 7.8 | 17.4 | 0.00 | 0.00 | 0.00 | 73 | 1015.4 |
| 20260902000905 | 59 | 294 | 7.8 | 18.2 | 0.00 | 0.00 | 0.00 | 73 | 1015.4 |
| 20260902000406 | 59 | 338 | 10.4 | 17.4 | 0.00 | 0.00 | 0.00 | 73 | 1015.4 |
| 20260901235905 | 60 | 284 | 8.7 | 17.4 | 0.00 | 0.00 | 0.00 | 71 | 1015.4 |
| 20260901235407 | 60 | 284 | 7.8 | 17.4 | 0.00 | 0.00 | 0.00 | 71 | 1015.3 |
| 20260901234906 | 60 | 323 | 7.0 | 15.6 | 0.00 | 0.00 | 0.00 | 71 | 1015.4 |
| 20260901234406 | 60 | 334 | 4.3 | 13.9 | 0.00 | 0.00 | 0.00 | 72 | 1015.3 |
| 20260901233905 | 60 | 249 | 8.7 | 14.8 | 0.00 | 0.00 | 0.00 | 71 | 1015.3 |
| 20260901233405 | 60 | 263 | 6.1 | 17.4 | 0.00 | 0.00 | 0.00 | 72 | 1015.3 |
| 20260901232405 | 59 | 303 | 5.2 | 17.4 | 0.00 | 0.00 | 0.00 | 74 | 1015.4 |
| 20260901230905 | 59 | 273 | 5.2 | 12.2 | 0.00 | 0.00 | 0.00 | 74 | 1015.6 |
| 20260901230406 | 59 | 254 | 5.2 | 15.6 | 0.00 | 0.00 | 0.00 | 74 | 1015.7 |
| 20260901225905 | 59 | 257 | 7.8 | 17.4 | 0.00 | 0.00 | 0.00 | 74 | 1015.5 |
| 20260901225407 | 59 | 267 | 6.1 | 13.9 | 0.00 | 0.00 | 0.00 | 76 | 1015.6 |
| 20260901224905 | 59 | 266 | 6.1 | 14.8 | 0.00 | 0.00 | 0.00 | 76 | 1015.7 |
| 20260901224406 | 58 | 232 | 6.1 | 22.6 | 0.00 | 0.00 | 0.00 | 76 | 1015.8 |
| 20260901223906 | 58 | 221 | 7.8 | 14.8 | 0.00 | 0.00 | 0.00 | 75 | 1015.7 |
| 20260901223405 | 58 | 246 | 5.2 | 18.2 | 0.00 | 0.00 | 0.00 | 76 | 1015.6 |
| 20260901222405 | 58 | 259 | 6.1 | 18.2 | 0.00 | 0.00 | 0.00 | 75 | 1015.6 |
| 20260901221905 | 58 | 308 | 7.8 | 17.4 | 0.00 | 0.00 | 0.00 | 75 | 1015.6 |
| 20260901221405 | 58 | 300 | 5.2 | 14.8 | 0.00 | 0.00 | 0.00 | 76 | 1015.6 |
| 20260901220906 | 57 | 348 | 4.3 | 14.8 | 0.00 | 0.00 | 0.00 | 75 | 1015.6 |
| 20260901220405 | 57 | 293 | 7.0 | 18.2 | 0.00 | 0.00 | 0.00 | 75 | 1015.5 |
| 20260901215906 | 57 | 274 | 7.8 | 17.4 | 0.00 | 0.00 | 0.00 | 75 | 1015.5 |
| 20260901215406 | 57 | 329 | 7.0 | 18.2 | 0.00 | 0.00 | 0.00 | 75 | 1015.5 |
| 20260901214405 | 57 | 335 | 7.0 | 18.2 | 0.00 | 0.00 | 0.00 | 76 | 1015.6 |
| 20260901213405 | 57 | 334 | 7.0 | 15.6 | 0.00 | 0.00 | 0.00 | 75 | 1015.6 |
| 20260901212905 | 57 | 337 | 7.0 | 20.0 | 0.00 | 0.00 | 0.00 | 75 | 1015.4 |
| 20260901212405 | 56 | 294 | 6.1 | 21.7 | 0.00 | 0.00 | 0.00 | 75 | 1015.4 |
| 20260901211905 | 56 | 310 | 5.2 | 17.4 | 0.00 | 0.00 | 0.00 | 75 | 1015.5 |
| 20260901211405 | 56 | 294 | 6.1 | 13.9 | 0.00 | 0.00 | 0.00 | 75 | 1015.5 |
| 20260901210405 | 56 | 270 | 4.3 | 15.6 | 0.00 | 0.00 | 0.00 | 75 | 1015.6 |
| 20260901205905 | 55 | 306 | 4.3 | 10.4 | 0.00 | 0.00 | 0.00 | 75 | 1015.7 |
| 20260901205407 | 55 | 203 | 4.3 | 18.2 | 0.00 | 0.00 | 0.00 | 75 | 1015.8 |
| 20260901204906 | 55 | 239 | 5.2 | 15.6 | 0.00 | 0.00 | 0.00 | 75 | 1015.9 |
| 20260901204405 | 54 | 216 | 5.2 | 11.3 | 0.00 | 0.00 | 0.00 | 76 | 1015.8 |
| 20260901203904 | 54 | 205 | 7.0 | 13.0 | 0.00 | 0.00 | 0.00 | 76 | 1015.8 |
| 20260901202906 | 53 | 210 | 6.1 | 21.7 | 0.00 | 0.00 | 0.00 | 78 | 1015.8 |
| 20260901202405 | 52 | 215 | 6.1 | 15.6 | 0.00 | 0.00 | 0.00 | 79 | 1015.9 |
| 20260901201905 | 52 | 223 | 5.2 | 10.4 | 0.00 | 0.00 | 0.00 | 79 | 1016.0 |
| 20260901201406 | 52 | 214 | 5.2 | 15.6 | 0.00 | 0.00 | 0.00 | 80 | 1016.0 |
| 20260901200905 | 51 | 293 | 5.2 | 10.4 | 0.00 | 0.00 | 0.00 | 80 | 1016.0 |
| 20260901200405 | 51 | 320 | 4.3 | 11.3 | 0.00 | 0.00 | 0.00 | 81 | 1016.1 |
| 20260901195904 | 51 | 225 | 3.5 | 8.7 | 0.00 | 0.00 | 0.00 | 81 | 1016.0 |
| 20260901194905 | 51 | 224 | 3.5 | 11.3 | 0.00 | 0.00 | 0.00 | 81 | 1015.9 |
| 20260901194405 | 51 | 233 | 5.2 | 13.0 | 0.00 | 0.00 | 0.00 | 81 | 1015.8 |
| 20260901193905 | 51 | 223 | 5.2 | 11.3 | 0.00 | 0.00 | 0.00 | 81 | 1015.8 |
| 20260901193405 | 51 | 315 | 6.1 | 20.0 | 0.00 | 0.00 | 0.00 | 82 | 1015.7 |
| 20260901192906 | 51 | 218 | 3.5 | 11.3 | 0.00 | 0.00 | 0.00 | 82 | 1015.6 |
| 20260901191905 | 51 | 200 | 4.3 | 17.4 | 0.00 | 0.00 | 0.00 | 83 | 1015.6 |
| 20260901191405 | 51 | 216 | 7.8 | 17.4 | 0.00 | 0.00 | 0.00 | 83 | 1015.4 |
| 20260901190905 | 51 | 350 | 2.6 | 10.4 | 0.00 | 0.00 | 0.00 | 83 | 1015.5 |
| 20260901190406 | 51 | 269 | 3.5 | 10.4 | 0.00 | 0.00 | 0.00 | 83 | 1015.5 |
| 20260901185905 | 51 | 226 | 5.2 | 11.3 | 0.00 | 0.00 | 0.00 | 83 | 1015.6 |
| 20260901185405 | 51 | 290 | 2.6 | 10.4 | 0.00 | 0.00 | 0.00 | 84 | 1015.5 |
| 20260901184905 | 51 | 235 | 4.3 | 12.2 | 0.00 | 0.00 | 0.00 | 84 | 1015.4 |
| 20260901184405 | 51 | 261 | 4.3 | 11.3 | 0.00 | 0.00 | 0.00 | 84 | 1015.5 |
| 20260901183905 | 52 | 282 | 5.2 | 13.9 | 0.00 | 0.00 | 0.00 | 84 | 1015.5 |
| 20260901183405 | 52 | 214 | 6.1 | 13.9 | 0.00 | 0.00 | 0.00 | 83 | 1015.7 |
| 20260901182905 | 51 | 256 | 5.2 | 12.2 | 0.00 | 0.00 | 0.00 | 83 | 1015.4 |
| 20260901182404 | 51 | 280 | 2.6 | 10.4 | 0.00 | 0.00 | 0.00 | 83 | 1015.4 |
| 20260901181905 | 51 | 276 | 2.6 | 11.3 | 0.00 | 0.00 | 0.00 | 83 | 1015.3 |
| 20260901180905 | 51 | 225 | 3.5 | 13.0 | 0.00 | 0.00 | 0.00 | 83 | 1015.4 |
| 20260901180405 | 51 | 297 | 4.3 | 11.3 | 0.00 | 0.00 | 0.00 | 83 | 1015.3 |
| 20260901175905 | 51 | 278 | 2.6 | 7.8 | 0.00 | 0.00 | 0.00 | 82 | 1015.3 |
| 20260901175405 | 50 | 270 | 4.3 | 7.8 | 0.00 | 0.00 | 0.00 | 82 | 1015.3 |
| 20260901174405 | 51 | 293 | 1.7 | 8.7 | 0.00 | 0.00 | 0.00 | 82 | 1015.2 |
| 20260901173905 | 51 | 239 | 3.5 | 8.7 | 0.00 | 0.00 | 0.00 | 81 | 1015.2 |
| 20260901173405 | 51 | 230 | 5.2 | 10.4 | 0.00 | 0.00 | 0.00 | 81 | 1015.2 |
| 20260901172905 | 51 | 218 | 5.2 | 14.8 | 0.00 | 0.00 | 0.00 | 81 | 1015.3 |
| 20260901172405 | 51 | 198 | 5.2 | 13.0 | 0.00 | 0.00 | 0.00 | 82 | 1015.3 |
| 20260901171905 | 51 | 219 | 5.2 | 12.2 | 0.00 | 0.00 | 0.00 | 82 | 1015.2 |
| 20260901171405 | 51 | 305 | 6.1 | 13.9 | 0.00 | 0.00 | 0.00 | 82 | 1015.1 |
| 20260901170904 | 51 | 265 | 5.2 | 14.8 | 0.00 | 0.00 | 0.00 | 83 | 1014.9 |
| 20260901170404 | 50 | 244 | 4.3 | 14.8 | 0.00 | 0.00 | 0.00 | 84 | 1014.9 |
| 20260901165905 | 51 | 202 | 5.2 | 12.2 | 0.00 | 0.00 | 0.00 | 84 | 1014.9 |
| 20260901164905 | 51 | 228 | 3.5 | 8.7 | 0.00 | 0.00 | 0.00 | 84 | 1014.8 |
| 20260901163904 | 51 | 210 | 5.2 | 13.0 | 0.00 | 0.00 | 0.00 | 83 | 1014.7 |
| 20260901162905 | 51 | 236 | 5.2 | 13.9 | 0.00 | 0.00 | 0.00 | 83 | 1014.7 |
| 20260901162405 | 51 | 218 | 6.1 | 13.0 | 0.00 | 0.00 | 0.00 | 83 | 1014.7 |
| 20260901161905 | 51 | 205 | 6.1 | 17.4 | 0.00 | 0.00 | 0.00 | 83 | 1014.7 |
| 20260901160905 | 52 | 203 | 6.1 | 19.1 | 0.00 | 0.00 | 0.00 | 83 | 1014.7 |
| 20260901160405 | 52 | 185 | 6.1 | 17.4 | 0.00 | 0.00 | 0.00 | 83 | 1014.8 |
| 20260901155905 | 52 | 208 | 6.1 | 13.0 | 0.00 | 0.00 | 0.00 | 83 | 1014.7 |
| 20260901155405 | 52 | 249 | 7.0 | 15.6 | 0.00 | 0.00 | 0.00 | 83 | 1014.6 |
| 20260901154905 | 52 | 190 | 7.0 | 13.0 | 0.00 | 0.00 | 0.00 | 83 | 1014.7 |
| 20260901154405 | 51 | 216 | 7.8 | 19.1 | 0.00 | 0.00 | 0.00 | 83 | 1014.7 |
| 20260901153904 | 51 | 204 | 6.1 | 14.8 | 0.00 | 0.00 | 0.00 | 83 | 1014.6 |
| 20260901153405 | 52 | 211 | 7.0 | 14.8 | 0.00 | 0.00 | 0.00 | 83 | 1014.6 |
| 20260901152905 | 51 | 217 | 7.8 | 18.2 | 0.00 | 0.00 | 0.00 | 83 | 1014.6 |
| 20260901152404 | 51 | 254 | 6.1 | 17.4 | 0.00 | 0.00 | 0.00 | 83 | 1014.6 |
| 20260901151905 | 51 | 239 | 6.1 | 17.4 | 0.00 | 0.00 | 0.00 | 83 | 1014.7 |
| 20260901151405 | 51 | 283 | 6.1 | 14.8 | 0.00 | 0.00 | 0.00 | 84 | 1014.8 |
| 20260901150905 | 51 | 228 | 5.2 | 15.6 | 0.00 | 0.00 | 0.00 | 83 | 1014.6 |
| 20260901150405 | 51 | 196 | 4.3 | 13.9 | 0.00 | 0.00 | 0.00 | 83 | 1014.8 |
| 20260901145904 | 51 | 230 | 6.1 | 13.0 | 0.00 | 0.00 | 0.00 | 82 | 1014.8 |
| 20260901144905 | 51 | 209 | 6.1 | 14.8 | 0.00 | 0.00 | 0.00 | 82 | 1014.9 |
| 20260901143905 | 51 | 190 | 4.3 | 10.4 | 0.00 | 0.00 | 0.00 | 82 | 1015.0 |
| 20260901142405 | 51 | 224 | 5.2 | 10.4 | 0.00 | 0.00 | 0.00 | 81 | 1015.1 |
| 20260901141904 | 51 | 204 | 6.1 | 11.3 | 0.00 | 0.00 | 0.00 | 81 | 1015.0 |
| 20260901141405 | 51 | 225 | 6.1 | 13.0 | 0.00 | 0.00 | 0.00 | 81 | 1015.1 |
| 20260901140905 | 51 | 212 | 4.3 | 14.8 | 0.00 | 0.00 | 0.00 | 81 | 1015.1 |
| 20260901140405 | 51 | 225 | 5.2 | 12.2 | 0.00 | 0.00 | 0.00 | 81 | 1015.2 |
| 20260901135904 | 51 | 212 | 6.1 | 13.0 | 0.00 | 0.00 | 0.00 | 81 | 1015.2 |
| 20260901135404 | 51 | 207 | 6.1 | 13.0 | 0.00 | 0.00 | 0.00 | 81 | 1015.2 |
| 20260901134905 | 51 | 208 | 6.1 | 13.0 | 0.00 | 0.00 | 0.00 | 81 | 1015.2 |
| 20260901133904 | 51 | 216 | 6.1 | 13.9 | 0.00 | 0.00 | 0.00 | 82 | 1015.3 |
| 20260901133405 | 51 | 197 | 7.0 | 15.6 | 0.00 | 0.00 | 0.00 | 82 | 1015.1 |
| 20260901132905 | 51 | 220 | 6.1 | 17.4 | 0.00 | 0.00 | 0.00 | 82 | 1015.0 |
| 20260901132404 | 50 | 232 | 7.8 | 19.1 | 0.00 | 0.00 | 0.00 | 82 | 1015.0 |
| 20260901131905 | 50 | 213 | 7.8 | 18.2 | 0.00 | 0.00 | 0.00 | 82 | 1015.0 |
| 20260901130904 | 50 | 217 | 5.2 | 10.4 | 0.00 | 0.00 | 0.00 | 83 | 1015.0 |
| 20260901130405 | 50 | 241 | 4.3 | 11.3 | 0.00 | 0.00 | 0.00 | 83 | 1015.1 |
| 20260901125905 | 50 | 213 | 6.1 | 14.8 | 0.00 | 0.00 | 0.00 | 83 | 1015.2 |
| 20260901125405 | 50 | 198 | 6.1 | 12.2 | 0.00 | 0.00 | 0.00 | 84 | 1015.1 |
| 20260901124904 | 50 | 219 | 7.8 | 17.4 | 0.00 | 0.00 | 0.00 | 84 | 1015.1 |
| 20260901124405 | 50 | 227 | 5.2 | 12.2 | 0.00 | 0.00 | 0.00 | 84 | 1015.3 |
| 20260901123904 | 50 | 227 | 6.1 | 12.2 | 0.00 | 0.00 | 0.00 | 85 | 1015.1 |
| 20260901123405 | 50 | 202 | 5.2 | 13.9 | 0.00 | 0.00 | 0.00 | 85 | 1015.0 |
| 20260901122905 | 50 | 217 | 7.8 | 13.9 | 0.00 | 0.00 | 0.00 | 85 | 1015.1 |
| 20260901122405 | 50 | 218 | 5.2 | 13.0 | 0.00 | 0.00 | 0.00 | 85 | 1015.2 |
| 20260901121905 | 50 | 197 | 6.1 | 14.8 | 0.00 | 0.00 | 0.00 | 85 | 1015.2 |
| 20260901121405 | 50 | 196 | 6.1 | 14.8 | 0.00 | 0.00 | 0.00 | 85 | 1015.3 |
| 20260901120904 | 50 | 229 | 7.8 | 17.4 | 0.00 | 0.00 | 0.00 | 85 | 1015.3 |
| 20260901120404 | 50 | 221 | 7.8 | 17.4 | 0.00 | 0.00 | 0.00 | 86 | 1015.1 |
| 20260901115905 | 50 | 228 | 6.1 | 13.9 | 0.00 | 0.01 | 0.00 | 85 | 1015.2 |
| 20260901115405 | 50 | 220 | 6.1 | 15.6 | 0.00 | 0.01 | 0.00 | 85 | 1015.1 |
| 20260901114904 | 50 | 250 | 6.1 | 14.8 | 0.00 | 0.01 | 0.00 | 85 | 1015.2 |
| 20260901113904 | 50 | 238 | 5.2 | 14.8 | 0.00 | 0.01 | 0.00 | 84 | 1015.3 |
| 20260901113405 | 50 | 201 | 6.1 | 13.9 | 0.00 | 0.01 | 0.00 | 84 | 1015.3 |
| 20260901112904 | 50 | 243 | 4.3 | 12.2 | 0.00 | 0.01 | 0.00 | 83 | 1015.4 |
| 20260901112404 | 50 | 275 | 4.3 | 14.8 | 0.00 | 0.01 | 0.00 | 82 | 1015.4 |
| 20260901111904 | 50 | 232 | 5.2 | 11.3 | 0.00 | 0.01 | 0.00 | 82 | 1015.5 |
| 20260901111405 | 50 | 248 | 6.1 | 18.2 | 0.00 | 0.01 | 0.00 | 81 | 1015.6 |
| 20260901110905 | 50 | 201 | 5.2 | 12.2 | 0.00 | 0.01 | 0.00 | 80 | 1015.6 |
| 20260901110404 | 50 | 223 | 6.1 | 13.9 | 0.00 | 0.01 | 0.00 | 80 | 1015.7 |
| 20260901105905 | 50 | 203 | 5.2 | 12.2 | 0.00 | 0.01 | 0.00 | 80 | 1015.7 |
| 20260901105405 | 50 | 207 | 6.1 | 12.2 | 0.00 | 0.01 | 0.00 | 79 | 1015.7 |
| 20260901104905 | 50 | 229 | 6.1 | 15.6 | 0.00 | 0.01 | 0.00 | 79 | 1015.6 |
| 20260901104405 | 50 | 212 | 6.1 | 15.6 | 0.00 | 0.01 | 0.00 | 78 | 1015.6 |
| 20260901103405 | 50 | 211 | 5.2 | 13.0 | 0.00 | 0.01 | 0.00 | 78 | 1015.7 |
| 20260901102904 | 51 | 217 | 6.1 | 15.6 | 0.00 | 0.01 | 0.00 | 77 | 1015.7 |
| 20260901102404 | 51 | 212 | 6.1 | 13.9 | 0.00 | 0.01 | 0.00 | 77 | 1015.6 |
| 20260901101904 | 51 | 216 | 6.1 | 15.6 | 0.00 | 0.01 | 0.00 | 77 | 1015.6 |
| 20260901101406 | 50 | 224 | 7.0 | 18.2 | 0.00 | 0.01 | 0.00 | 76 | 1015.5 |
| 20260901100906 | 51 | 199 | 7.8 | 17.4 | 0.00 | 0.01 | 0.00 | 76 | 1015.5 |
| 20260901100407 | 51 | 211 | 7.0 | 13.9 | 0.00 | 0.01 | 0.00 | 76 | 1015.5 |
| 20260901095904 | 50 | 215 | 7.0 | 13.9 | 0.00 | 0.01 | 0.00 | 76 | 1015.5 |
| 20260901095405 | 50 | 201 | 6.1 | 19.1 | 0.00 | 0.01 | 0.00 | 76 | 1015.5 |
| 20260901094905 | 50 | 201 | 6.1 | 11.3 | 0.00 | 0.01 | 0.00 | 76 | 1015.5 |
| 20260901094406 | 50 | 217 | 5.2 | 12.2 | 0.00 | 0.01 | 0.00 | 76 | 1015.5 |
| 20260901093905 | 50 | 219 | 6.1 | 13.0 | 0.00 | 0.01 | 0.00 | 75 | 1015.6 |
| 20260901093404 | 50 | 245 | 5.2 | 13.0 | 0.00 | 0.01 | 0.00 | 75 | 1015.6 |
| 20260901092905 | 50 | 263 | 5.2 | 12.2 | 0.00 | 0.01 | 0.00 | 76 | 1015.4 |
| 20260901091905 | 50 | 221 | 4.3 | 14.8 | 0.00 | 0.01 | 0.00 | 75 | 1015.3 |
| 20260901091405 | 50 | 230 | 4.3 | 12.2 | 0.00 | 0.01 | 0.00 | 76 | 1015.3 |
| 20260901084906 | 51 | 227 | 5.2 | 15.6 | 0.00 | 0.01 | 0.00 | 76 | 1015.2 |
| 20260901084405 | 51 | 213 | 7.0 | 14.8 | 0.00 | 0.01 | 0.00 | 77 | 1015.0 |
| 20260901083905 | 50 | 280 | 6.1 | 13.0 | 0.00 | 0.01 | 0.00 | 77 | 1015.0 |
| 20260901083405 | 50 | 208 | 6.1 | 12.2 | 0.00 | 0.01 | 0.00 | 77 | 1014.9 |
| 20260901082906 | 50 | 221 | 7.8 | 13.9 | 0.00 | 0.01 | 0.00 | 77 | 1014.8 |
| 20260901082404 | 50 | 197 | 6.1 | 13.0 | 0.00 | 0.01 | 0.00 | 77 | 1014.8 |
| 20260901081904 | 50 | 228 | 6.1 | 13.0 | 0.00 | 0.01 | 0.00 | 77 | 1014.7 |
| 20260901081405 | 50 | 220 | 5.2 | 13.9 | 0.00 | 0.01 | 0.00 | 77 | 1014.8 |
| 20260901080905 | 50 | 202 | 7.0 | 13.9 | 0.00 | 0.01 | 0.00 | 77 | 1014.8 |
| 20260901080404 | 50 | 215 | 6.1 | 18.2 | 0.00 | 0.01 | 0.00 | 77 | 1014.8 |
| 20260901075904 | 50 | 224 | 7.8 | 15.6 | 0.00 | 0.01 | 0.00 | 77 | 1014.8 |
| 20260901075404 | 50 | 243 | 6.1 | 13.0 | 0.00 | 0.01 | 0.00 | 77 | 1014.8 |
| 20260901074904 | 50 | 225 | 6.1 | 14.8 | 0.00 | 0.01 | 0.00 | 77 | 1014.8 |
| 20260901074405 | 50 | 237 | 7.0 | 13.9 | 0.00 | 0.01 | 0.00 | 77 | 1014.8 |
| 20260901073904 | 50 | 284 | 5.2 | 12.2 | 0.00 | 0.01 | 0.00 | 77 | 1014.8 |
| 20260901073405 | 50 | 240 | 5.2 | 17.4 | 0.00 | 0.01 | 0.00 | 77 | 1014.7 |
| 20260901072904 | 50 | 246 | 5.2 | 15.6 | 0.00 | 0.01 | 0.00 | 77 | 1014.7 |
| 20260901071905 | 50 | 200 | 5.2 | 13.0 | 0.00 | 0.02 | 0.00 | 77 | 1014.6 |
| 20260901071405 | 50 | 261 | 5.2 | 11.3 | 0.00 | 0.02 | 0.00 | 76 | 1014.6 |
| 20260901070405 | 51 | 197 | 4.3 | 10.4 | 0.00 | 0.02 | 0.00 | 76 | 1014.6 |
| 20260901065905 | 51 | 197 | 7.8 | 17.4 | 0.00 | 0.02 | 0.00 | 75 | 1014.5 |
| 20260901065405 | 51 | 266 | 6.1 | 14.8 | 0.00 | 0.02 | 0.00 | 75 | 1014.4 |
| 20260901064905 | 51 | 203 | 6.1 | 17.4 | 0.00 | 0.02 | 0.00 | 75 | 1014.4 |
| 20260901064405 | 51 | 210 | 6.1 | 11.3 | 0.00 | 0.02 | 0.00 | 75 | 1014.4 |
| 20260901063904 | 51 | 280 | 4.3 | 13.0 | 0.00 | 0.02 | 0.00 | 75 | 1014.4 |
| 20260901063405 | 51 | 251 | 7.0 | 12.2 | 0.00 | 0.02 | 0.00 | 75 | 1014.3 |
| 20260901062909 | 51 | 206 | 5.2 | 21.7 | 0.00 | 0.02 | 0.00 | 74 | 1014.2 |
| 20260901062406 | 51 | 215 | 5.2 | 12.2 | 0.00 | 0.02 | 0.00 | 75 | 1014.2 |
| 20260901061405 | 51 | 220 | 4.3 | 13.9 | 0.00 | 0.02 | 0.00 | 74 | 1014.2 |
| 20260901060905 | 51 | 269 | 7.0 | 14.8 | 0.00 | 0.02 | 0.00 | 74 | 1014.2 |
| 20260901055905 | 51 | 214 | 7.8 | 13.0 | 0.00 | 0.02 | 0.00 | 74 | 1014.1 |
| 20260901055405 | 51 | 231 | 5.2 | 13.0 | 0.00 | 0.02 | 0.00 | 74 | 1014.1 |
| 20260901054905 | 52 | 254 | 7.0 | 13.9 | 0.00 | 0.02 | 0.00 | 74 | 1014.0 |
| 20260901054405 | 52 | 327 | 5.2 | 12.2 | 0.00 | 0.02 | 0.00 | 74 | 1013.9 |
| 20260901053405 | 53 | 220 | 5.2 | 15.6 | 0.00 | 0.02 | 0.00 | 73 | 1013.9 |
| 20260901052405 | 53 | 199 | 8.7 | 17.4 | 0.00 | 0.02 | 0.00 | 72 | 1013.7 |
| 20260901051905 | 53 | 258 | 6.1 | 14.8 | 0.00 | 0.02 | 0.00 | 71 | 1013.7 |
| 20260901051405 | 54 | 352 | 6.1 | 20.9 | 0.00 | 0.02 | 0.00 | 71 | 1013.6 |
| 20260901050405 | 54 | 296 | 6.1 | 15.6 | 0.00 | 0.02 | 0.00 | 70 | 1013.8 |
| 20260901045905 | 55 | 230 | 7.8 | 19.1 | 0.00 | 0.02 | 0.00 | 69 | 1013.7 |
| 20260901045405 | 55 | 275 | 5.2 | 13.9 | 0.00 | 0.02 | 0.00 | 69 | 1013.6 |
| 20260901044905 | 55 | 247 | 6.1 | 17.4 | 0.00 | 0.02 | 0.00 | 68 | 1013.5 |
| 20260901043905 | 55 | 225 | 7.8 | 17.4 | 0.00 | 0.02 | 0.00 | 69 | 1013.5 |
| 20260901043405 | 55 | 254 | 6.1 | 17.4 | 0.00 | 0.02 | 0.00 | 70 | 1013.6 |
| 20260901042904 | 55 | 213 | 8.7 | 17.4 | 0.00 | 0.02 | 0.00 | 69 | 1013.5 |
| 20260901042405 | 56 | 250 | 7.0 | 15.6 | 0.00 | 0.02 | 0.00 | 69 | 1013.4 |
| 20260901041905 | 56 | 276 | 6.1 | 17.4 | 0.00 | 0.02 | 0.00 | 69 | 1013.3 |
| 20260901041405 | 56 | 246 | 6.1 | 17.4 | 0.00 | 0.02 | 0.00 | 68 | 1013.3 |
| 20260901040905 | 56 | 247 | 5.2 | 20.0 | 0.00 | 0.02 | 0.00 | 69 | 1013.2 |
| 20260901040405 | 56 | 222 | 6.1 | 17.4 | 0.00 | 0.02 | 0.00 | 69 | 1013.2 |
| 20260901035405 | 57 | 197 | 5.2 | 15.6 | 0.00 | 0.02 | 0.00 | 69 | 1013.0 |
| 20260901034905 | 56 | 238 | 7.0 | 15.6 | 0.00 | 0.02 | 0.00 | 69 | 1013.2 |
| 20260901034405 | 55 | 219 | 5.2 | 17.4 | 0.00 | 0.02 | 0.00 | 70 | 1013.1 |
| 20260901033905 | 55 | 343 | 7.8 | 15.6 | 0.00 | 0.02 | 0.00 | 71 | 1013.1 |
| 20260901033405 | 53 | 222 | 7.8 | 18.2 | 0.00 | 0.02 | 0.00 | 71 | 1013.2 |
| 20260901032905 | 53 | 260 | 8.7 | 18.2 | 0.00 | 0.02 | 0.00 | 71 | 1013.2 |
| 20260901032404 | 54 | 219 | 8.7 | 19.1 | 0.00 | 0.02 | 0.00 | 70 | 1013.3 |